Wind_Speed
18 16 14 14 14 13 13 12 11 11 12 14 15 14 16 16 16 15 15 14 13 13 11 9 8 8 8 10 11 13 14 14 13 13 14 14 14 13 12 11 10 10 9 9
18 16 16 16 15 13 13 12 11 12 13 14 14 15 15 16 15 15 15 14 13 12 11 8 7 7 6 8 10 12 12 12 12 13 13 14 14 13 12 12 11 10 10 10
16 16 18 17 15 13 12 11 13 13 13 15 16 16 15 16 15 14 14 12 11 10 8 5 4 4 5 6 9 11 12 13 13 13 13 13 13 13 13 12 12 11 11 10
16 18 19 18 16 14 12 12 13 14 15 16 18 17 15 14 13 13 12 9 8 8 7 4 3 4 5 5 7 9 11 12 12 12 13 13 14 13 13 13 12 12 12 11
15 18 19 19 15 14 13 12 14 16 17 17 18 18 15 15 14 12 10 8 6 6 5 4 3 4 5 6 7 9 10 10 12 13 13 14 14 14 14 14 13 13 12 12
16 18 20 19 16 15 14 15 17 18 19 18 17 17 14 13 12 10 8 6 5 4 4 3 3 4 5 7 8 10 10 11 12 13 13 13 14 14 14 14 14 13 13 12
16 17 18 18 18 16 15 17 19 19 18 18 16 15 11 11 9 8 7 4 4 3 2 2 3 4 5 6 8 10 11 12 12 12 13 13 14 14 14 14 15 14 14 12
17 16 17 19 18 17 16 18 19 20 18 16 15 15 11 10 8 7 6 3 2 2 1 2 4 5 6 7 9 10 11 12 12 13 13 13 13 14 14 15 15 14 13 12
18 17 17 19 19 19 18 19 19 20 19 18 16 14 11 10 8 7 6 5 3 2 2 3 4 5 7 8 9 10 11 12 13 13 14 14 14 14 15 15 15 14 13 11
21 20 19 20 21 21 21 20 20 22 21 20 17 15 11 10 9 7 6 4 2 2 3 3 4 6 7 8 9 9 11 12 13 14 15 15 15 15 15 15 14 13 12 11
25 24 21 23 24 24 24 22 22 23 22 21 19 15 12 11 10 8 5 4 3 3 3 3 4 6 7 8 9 10 11 11 12 13 14 15 15 15 15 14 13 12 12 11
27 26 25 24 24 25 26 25 24 24 24 22 20 16 14 13 12 9 6 5 5 4 4 4 5 5 7 8 9 11 12 12 12 13 14 15 15 15 15 14 13 12 12 11
27 27 26 25 25 26 27 26 26 26 25 24 23 18 15 14 13 10 8 7 7 6 5 6 6 6 7 8 9 10 12 13 13 14 15 15 16 15 15 15 14 13 13 12
29 29 28 27 26 28 30 30 29 28 27 25 23 19 17 15 14 11 9 8 7 7 6 6 7 7 8 9 10 10 11 12 13 14 15 15 16 16 16 15 14 14 14 13
32 31 30 29 28 29 31 31 31 30 28 27 25 22 20 19 16 14 11 9 8 7 8 7 7 8 9 10 11 11 11 12 14 15 15 15 15 16 16 16 15 15 15 14
31 32 30 29 29 30 32 33 32 30 28 27 26 24 23 23 20 17 14 12 10 9 8 9 9 8 9 10 11 12 12 13 14 15 16 16 16 16 16 17 17 17 16 16
30 30 29 28 28 29 29 30 32 30 28 28 27 25 24 24 21 19 16 14 13 10 9 9 9 9 10 10 11 12 13 13 14 15 15 16 16 17 18 18 18 18 18 18
28 28 28 27 26 28 24 25 29 31 31 30 28 27 26 23 21 17 15 15 13 12 12 12 11 11 11 12 13 13 14 15 15 15 16 17 17 18 18 19 19 20 20 21
25 26 26 25 26 25 23 24 27 30 30 29 27 27 27 25 22 20 18 17 15 14 14 14 14 13 13 14 14 15 15 16 16 16 17 18 19 20 20 21 22 22 22 23
23 24 24 24 24 24 23 24 27 28 29 27 27 27 27 25 23 21 20 18 17 16 16 17 16 16 16 16 16 16 16 17 18 18 19 20 21 21 22 23 24 25 25 25
20 21 22 23 23 23 22 23 26 29 28 27 27 27 26 25 23 23 22 20 19 18 17 18 19 17 17 18 18 18 18 19 20 20 21 22 23 23 24 24 26 26 27 27
17 18 19 20 20 21 22 22 25 25 25 25 27 27 26 25 25 24 23 22 20 19 18 19 20 20 19 20 19 19 20 21 22 22 23 23 24 25 26 25 26 28 28 28
15 16 17 19 19 19 19 20 22 23 23 24 25 27 28 27 26 23 20 21 21 21 21 21 21 21 21 21 20 20 21 22 23 24 24 25 26 27 27 27 28 29 29 30
14 14 15 17 18 18 19 20 21 22 22 23 23 23 25 26 25 25 25 24 23 22 23 23 22 21 21 23 22 22 22 24 25 25 25 26 28 29 29 29 30 31 32 33
14 14 13 14 15 17 18 19 20 21 21 21 21 22 22 22 21 22 23 23 22 23 23 24 23 22 22 24 24 24 25 25 25 26 27 28 29 30 31 31 32 33 34 35
14 13 13 13 13 15 16 17 18 19 21 22 21 20 19 20 20 20 21 22 22 22 22 23 23 23 23 24 25 25 26 27 27 28 28 29 30 30 32 32 34 35 37 37
Wind_Direction
252 250 249 247 247 246 251 262 274 285 289 295 299 302 303 310 313 318 322 324 326 326 318 304 290 268 245 230 222 212 206 211 205 207 206 202 204 207 210 206 201 200 195 186
250 245 239 239 240 244 254 267 276 280 286 290 293 295 299 304 309 315 319 321 321 323 320 305 288 262 242 223 207 199 197 201 199 199 202 201 201 203 202 196 192 191 187 182
246 237 236 237 236 239 252 269 275 277 280 282 286 287 289 295 301 309 315 319 318 322 322 300 275 249 227 215 202 194 195 197 195 197 198 195 195 195 195 192 189 186 183 180
239 236 237 238 236 240 250 263 271 271 274 277 279 281 282 289 297 302 306 309 316 323 318 294 259 236 222 207 196 197 198 196 192 190 188 186 190 191 187 186 184 182 179 177
238 234 235 237 237 245 253 257 264 268 271 275 276 278 280 283 287 289 299 306 307 313 314 290 249 233 218 205 196 189 186 189 185 186 184 185 185 184 184 184 184 182 178 176
236 237 240 239 233 239 248 254 257 263 269 274 278 283 282 281 276 275 284 293 298 298 297 269 244 235 214 200 194 189 181 180 179 180 180 181 180 180 181 182 181 179 177 174
237 238 241 238 234 234 243 253 260 260 265 274 281 282 280 284 278 273 280 278 286 293 275 245 232 218 205 190 185 186 182 179 177 177 178 178 178 181 181 182 181 180 177 176
246 238 236 234 235 238 243 253 260 263 270 274 273 280 278 281 275 268 264 262 272 277 247 211 216 208 195 187 183 182 181 181 181 180 178 177 179 182 182 182 182 181 182 184
253 241 232 231 231 238 242 249 257 264 268 271 273 278 278 271 271 276 267 253 245 239 208 195 198 197 190 183 184 188 185 184 184 184 182 179 180 181 181 182 182 185 188 191
254 248 236 232 233 236 244 250 254 259 264 267 267 274 281 274 268 273 265 246 236 238 207 191 184 184 185 185 187 190 186 185 184 185 184 183 182 183 185 185 186 189 194 200
255 252 241 236 236 238 239 245 250 253 256 261 266 270 273 273 269 258 251 235 209 210 211 198 185 185 188 187 186 186 186 183 184 186 188 187 187 187 188 189 193 200 206 213
251 254 249 243 243 242 242 244 247 251 253 258 264 269 267 270 268 255 241 236 232 219 216 208 195 188 188 187 189 193 193 190 190 191 191 191 191 193 195 198 204 211 217 223
251 253 255 249 243 241 242 245 248 250 253 254 259 265 264 263 263 257 242 236 233 222 214 217 210 200 196 193 193 196 199 198 196 195 196 197 199 202 205 209 215 222 227 232
253 254 256 254 246 242 242 245 248 251 254 252 255 258 260 260 260 260 247 238 229 222 207 211 213 210 206 203 199 199 201 202 202 201 201 203 207 210 213 218 224 230 234 238
256 257 257 256 251 244 242 244 247 248 250 252 253 254 257 256 258 261 256 254 232 213 211 220 223 218 214 212 211 210 209 209 209 209 211 213 216 219 223 228 233 238 240 244
257 259 259 257 254 249 244 243 246 246 249 251 252 253 254 255 257 255 258 259 239 220 220 225 227 226 221 218 219 220 218 218 217 217 219 222 225 228 231 236 240 243 246 250
256 258 258 254 251 251 247 242 242 244 247 249 249 250 250 250 251 253 250 249 245 237 232 234 236 232 226 226 226 226 226 225 224 225 227 230 233 236 239 242 245 248 252 256
253 255 257 255 251 249 247 242 240 242 243 246 248 248 248 248 249 250 245 243 242 243 237 235 236 234 231 233 233 232 231 231 232 232 235 238 240 243 245 246 248 251 255 260
252 253 254 255 252 250 243 240 240 241 243 246 249 247 244 247 250 247 247 245 241 242 242 241 240 237 236 235 234 234 236 237 238 238 240 243 246 248 250 251 254 255 258 261
253 252 252 254 255 252 246 242 240 241 244 246 250 249 244 248 248 244 244 242 239 239 245 243 241 240 239 240 238 237 239 240 241 243 244 246 248 251 254 256 257 258 261 264
252 252 252 253 254 253 249 240 242 244 245 246 248 247 246 246 248 241 241 244 242 239 242 242 240 239 240 242 243 241 242 243 245 246 249 251 252 254 254 257 260 261 263 267
253 252 253 252 254 255 254 249 246 244 242 243 244 245 244 247 244 241 242 240 239 238 239 241 238 238 238 240 243 243 245 246 247 251 252 254 257 259 259 260 263 263 265 269
259 254 255 251 253 256 254 251 246 247 247 246 248 247 246 247 247 247 243 234 235 235 237 241 241 240 240 242 245 246 245 246 249 254 256 260 261 262 264 264 268 269 270 272
260 257 258 254 256 257 257 254 252 250 249 250 248 247 246 249 247 245 243 241 238 237 242 243 242 241 244 248 250 250 250 250 252 256 260 263 265 266 267 268 271 272 272 273
256 260 265 266 262 260 260 258 254 251 250 250 250 247 246 243 243 242 243 240 236 235 241 239 240 241 245 249 251 253 255 257 259 261 264 265 269 271 272 273 273 274 275 275
256 260 265 266 261 260 260 258 258 256 252 250 246 242 238 234 235 240 243 240 237 237 238 239 242 244 246 249 252 255 258 259 261 263 267 268 270 273 274 275 277 277 277 278
Height
5860 5862 5863 5863 5863 5863 5863 5863 5863 5862 5862 5861 5859 5858 5857 5855 5853 5852 5850 5848 5845 5842 5840 5839 5838 5837 5838 5840 5840 5842 5845 5847 5850 5852 5855 5858 5861 5864 5866 5868 5869 5871 5873 5875
5856 5858 5858 5857 5858 5859 5859 5859 5859 5859 5858 5857 5856 5855 5854 5853 5851 5850 5848 5845 5844 5841 5838 5837 5837 5837 5838 5838 5838 5840 5842 5845 5847 5850 5853 5856 5859 5861 5864 5866 5868 5870 5872 5874
5851 5853 5852 5853 5854 5855 5855 5856 5856 5856 5855 5854 5853 5853 5852 5850 5849 5847 5845 5844 5842 5839 5837 5836 5836 5836 5836 5836 5836 5838 5841 5843 5845 5848 5851 5854 5857 5859 5862 5864 5866 5868 5871 5873
5846 5847 5847 5848 5849 5850 5851 5852 5853 5852 5852 5852 5851 5850 5849 5848 5846 5845 5843 5842 5840 5838 5836 5835 5835 5835 5835 5836 5836 5838 5839 5842 5844 5847 5850 5853 5855 5858 5860 5863 5865 5867 5869 5871
5842 5843 5843 5844 5846 5846 5847 5848 5849 5849 5849 5848 5847 5846 5847 5845 5843 5842 5841 5840 5838 5837 5835 5834 5834 5834 5834 5835 5836 5837 5839 5841 5843 5846 5849 5851 5854 5856 5858 5861 5864 5866 5868 5871
5837 5838 5838 5839 5840 5842 5843 5844 5845 5845 5845 5845 5844 5843 5843 5841 5840 5840 5839 5838 5836 5835 5834 5833 5833 5833 5833 5834 5835 5837 5838 5841 5843 5845 5847 5850 5852 5855 5857 5860 5862 5865 5868 5870
5832 5834 5835 5836 5836 5838 5839 5841 5841 5841 5841 5841 5841 5839 5840 5838 5837 5837 5837 5836 5835 5834 5833 5833 5832 5833 5833 5833 5834 5836 5838 5840 5842 5844 5847 5849 5851 5854 5856 5859 5861 5864 5867 5869
5826 5830 5831 5831 5833 5834 5835 5836 5837 5837 5837 5837 5837 5836 5837 5836 5835 5834 5834 5834 5833 5833 5832 5831 5831 5832 5832 5833 5834 5835 5837 5839 5841 5844 5846 5848 5850 5853 5855 5858 5861 5863 5866 5868
5821 5824 5826 5827 5828 5830 5830 5831 5832 5833 5833 5832 5833 5833 5833 5833 5833 5832 5832 5831 5831 5831 5830 5830 5830 5831 5831 5832 5833 5835 5836 5838 5841 5843 5845 5847 5850 5852 5855 5857 5860 5862 5865 5867
5815 5818 5821 5823 5824 5825 5826 5827 5828 5828 5828 5828 5829 5830 5831 5831 5830 5830 5830 5829 5829 5829 5829 5829 5829 5830 5830 5831 5832 5834 5835 5837 5840 5842 5844 5847 5849 5851 5854 5856 5859 5861 5863 5865
5810 5812 5815 5817 5818 5820 5821 5822 5822 5823 5824 5824 5825 5829 5828 5828 5827 5827 5827 5827 5826 5827 5828 5828 5828 5828 5829 5830 5831 5833 5835 5837 5839 5841 5844 5846 5848 5851 5853 5855 5858 5860 5861 5863
5804 5805 5807 5811 5813 5814 5815 5816 5817 5818 5819 5820 5821 5826 5824 5824 5823 5823 5823 5824 5824 5825 5826 5826 5827 5827 5828 5829 5830 5832 5834 5836 5838 5840 5842 5845 5847 5849 5852 5854 5856 5857 5859 5860
5798 5799 5801 5803 5807 5808 5808 5809 5810 5812 5813 5814 5816 5821 5820 5820 5820 5820 5821 5821 5822 5823 5824 5825 5826 5826 5827 5828 5829 5831 5832 5835 5837 5839 5841 5843 5846 5848 5850 5852 5853 5855 5856 5857
5792 5793 5795 5796 5798 5799 5801 5802 5804 5806 5807 5809 5811 5814 5816 5815 5816 5817 5819 5819 5820 5821 5822 5823 5824 5825 5826 5827 5828 5830 5831 5833 5835 5837 5839 5842 5844 5846 5847 5849 5850 5851 5852 5853
5785 5787 5787 5789 5790 5792 5794 5796 5798 5799 5801 5803 5806 5808 5811 5811 5812 5814 5815 5816 5817 5818 5819 5821 5822 5823 5824 5825 5826 5828 5829 5831 5833 5835 5837 5839 5841 5842 5844 5845 5846 5847 5848 5849
5778 5779 5780 5782 5783 5784 5786 5789 5791 5794 5796 5798 5800 5803 5805 5806 5808 5809 5811 5812 5814 5815 5816 5818 5819 5820 5821 5822 5824 5825 5827 5829 5830 5832 5834 5836 5837 5839 5840 5841 5842 5843 5843 5844
5770 5771 5772 5773 5775 5775 5778 5782 5785 5787 5789 5791 5793 5797 5798 5800 5802 5804 5805 5807 5809 5810 5812 5814 5816 5817 5818 5819 5821 5822 5824 5826 5827 5829 5830 5832 5833 5834 5835 5836 5837 5838 5838 5839
5763 5763 5764 5765 5768 5769 5775 5776 5777 5779 5781 5784 5787 5789 5791 5794 5796 5798 5800 5801 5803 5805 5807 5809 5811 5813 5814 5816 5817 5819 5820 5821 5823 5825 5826 5827 5829 5830 5830 5831 5832 5832 5832 5833
5756 5756 5757 5759 5760 5763 5767 5769 5770 5772 5774 5777 5780 5782 5784 5788 5790 5793 5794 5796 5798 5801 5802 5804 5806 5807 5809 5811 5812 5814 5815 5817 5819 5820 5821 5822 5823 5824 5825 5825 5826 5826 5826 5826
5749 5750 5752 5753 5754 5756 5761 5762 5763 5767 5768 5771 5773 5775 5778 5781 5783 5786 5788 5790 5792 5795 5797 5798 5800 5802 5804 5805 5806 5808 5810 5812 5813 5815 5815 5816 5817 5818 5818 5819 5819 5819 5819 5818
5744 5744 5745 5747 5748 5749 5753 5755 5758 5761 5763 5765 5767 5769 5771 5773 5776 5779 5781 5783 5785 5788 5790 5792 5794 5796 5798 5800 5801 5803 5804 5806 5807 5808 5809 5810 5810 5810 5811 5811 5810 5810 5810 5810
5738 5739 5740 5741 5742 5746 5746 5748 5751 5752 5755 5757 5759 5762 5764 5767 5768 5770 5772 5775 5779 5781 5784 5786 5788 5790 5792 5794 5795 5796 5798 5799 5800 5801 5802 5802 5803 5802 5802 5802 5802 5801 5801 5801
5733 5735 5735 5737 5739 5738 5739 5741 5743 5745 5748 5750 5752 5755 5757 5759 5761 5763 5764 5767 5772 5775 5777 5780 5782 5784 5785 5787 5788 5789 5791 5792 5793 5794 5794 5795 5795 5795 5795 5794 5794 5794 5793 5793
5729 5729 5730 5731 5732 5733 5734 5735 5737 5739 5741 5743 5746 5747 5750 5752 5753 5756 5759 5762 5764 5768 5771 5773 5775 5777 5778 5779 5781 5782 5783 5785 5786 5786 5786 5786 5786 5786 5786 5786 5786 5785 5784 5783
5724 5725 5725 5726 5728 5728 5729 5730 5732 5733 5735 5737 5739 5741 5743 5745 5747 5750 5753 5755 5758 5761 5764 5766 5768 5770 5772 5773 5774 5775 5776 5777 5778 5778 5778 5778 5778 5778 5777 5777 5776 5775 5775 5773
5720 5721 5722 5723 5723 5724 5725 5725 5726 5726 5727 5730 5732 5735 5737 5739 5741 5744 5746 5748 5751 5754 5756 5758 5761 5763 5765 5766 5767 5768 5768 5769 5770 5770 5770 5770 5770 5769 5769 5768 5767 5765 5764 5762